Date String (YYYY-MM-DD hh:mm:ss) UTC,Instrument flags,Ambient pressure (hPa),Sample flow (lpm),Bypass flow (lpm),Sample temperature (°C),Ambient temperature (°C),ASC tube jacket temperature (°C),LED temperature (°C),Box temperature (°C),Sample RH (%),Span deviation,Mass concentration (μg/m³),Mass concentration (μg/m³),Mass concentration (μg/m³)
DateTimeUTC,F1_M11,P_M11,Q1_M11,Q2_M11,T1_M11,T2_M11,T3_M11,T4_M11,T5_M11,U1_M11,ZSPAN_M11,X0_M11,X2_M11,X1_M11
2023-05-03 10:00:00,,0828.4,5.00,0.00,28.5,26.8,00.0,36.9,29.8,17.2,0000.0,0009.70,0004.72,0003.56
2023-05-03 10:01:00,,0828.4,5.01,0.00,28.5,26.8,00.0,36.9,29.8,17.1,0000.0,0010.09,0004.69,0003.54
2023-05-03 10:02:00,,0828.4,5.00,0.00,28.5,26.8,00.0,36.9,29.8,17.1,0000.0,0010.19,0004.70,0003.52
2023-05-03 10:03:00,,0828.4,5.00,0.00,28.5,26.8,00.0,36.9,29.9,17.1,0000.0,0010.34,0004.76,0003.52
2023-05-03 10:04:00,,0828.4,5.00,0.00,28.5,26.8,00.0,36.9,29.9,17.1,0000.0,0010.19,0004.71,0003.51
2023-05-03 10:05:00,,0828.4,5.00,0.00,28.5,26.8,00.0,36.9,29.9,17.2,0000.0,0010.19,0004.70,0003.50
2023-05-03 10:06:00,,0828.4,5.00,0.00,28.5,26.8,00.0,36.9,29.9,17.3,0000.0,0010.22,0004.70,0003.50
2023-05-03 10:07:00,,0828.4,5.00,0.00,28.5,26.8,00.0,36.9,29.9,17.3,0000.0,0009.95,0004.69,0003.49
2023-05-03 10:08:00,,0828.4,5.00,0.00,28.5,26.8,00.0,36.9,29.9,17.3,0000.0,0009.91,0004.70,0003.48
2023-05-03 10:09:00,,0828.4,5.00,0.00,28.5,26.8,00.0,36.9,29.9,17.2,0000.0,0009.85,0004.70,0003.48
2023-05-03 10:10:00,,0828.4,5.00,0.00,28.5,26.8,00.0,36.9,29.9,17.2,0000.0,0010.16,0004.71,0003.49
2023-05-03 10:11:00,,0828.4,4.99,0.00,28.5,26.8,00.0,36.9,29.9,17.2,0000.0,0010.29,0004.69,0003.50
2023-05-03 10:12:00,,0828.4,5.00,0.00,28.5,26.8,00.0,36.9,29.9,17.1,0000.0,0009.95,0004.70,0003.49
2023-05-03 10:13:00,,0828.4,5.01,0.00,28.5,26.9,00.0,36.9,30.0,17.2,0000.0,0009.84,0004.70,0003.49
2023-05-03 10:14:00,,0828.5,4.99,0.00,28.5,26.9,00.0,36.9,30.0,17.5,0000.0,0009.76,0004.69,0003.50
2023-05-03 10:15:00,,0828.5,4.99,0.00,28.5,26.9,00.0,36.9,30.0,17.4,0000.0,0009.88,0004.74,0003.50
2023-05-03 10:16:00,,0828.4,5.00,0.00,28.5,26.9,00.0,36.9,30.0,17.4,0000.0,0009.97,0004.75,0003.51
2023-05-03 10:17:00,,0828.5,5.00,0.00,28.5,26.9,00.0,36.9,30.0,17.3,0000.0,0009.99,0004.76,0003.51
2023-05-03 10:18:00,,0828.6,5.00,0.00,28.5,26.9,00.0,36.9,30.1,17.3,0000.0,0010.05,0004.80,0003.51
2023-05-03 10:19:00,,0828.6,5.01,0.00,28.5,27.0,00.0,36.9,30.0,17.2,0000.0,0010.19,0004.83,0003.53
2023-05-03 10:20:00,,0828.6,5.01,0.00,28.5,27.0,00.0,36.9,30.0,17.3,0000.0,0010.16,0004.84,0003.54
2023-05-03 10:21:00,,0828.6,4.98,0.00,28.5,27.0,00.0,36.9,30.0,17.3,0000.0,0010.12,0004.83,0003.53
2023-05-03 10:22:00,,0828.6,5.00,0.00,28.5,27.0,00.0,36.9,30.0,17.2,0000.0,0010.02,0004.86,0003.54
2023-05-03 10:23:00,,0828.6,5.00,0.00,28.5,27.0,00.0,36.9,30.0,17.2,0000.0,0010.02,0004.89,0003.57
2023-05-03 10:24:00,,0828.6,5.01,0.00,28.6,27.0,00.0,36.9,30.0,17.2,0000.0,0009.94,0004.86,0003.58
2023-05-03 10:25:00,,0828.6,5.00,0.00,28.6,27.0,00.0,36.9,30.0,17.2,0000.0,0009.81,0004.80,0003.58
2023-05-03 10:26:00,,0828.6,5.01,0.00,28.6,27.0,00.0,36.9,30.0,17.1,0000.0,0010.29,0004.77,0003.59
2023-05-03 10:27:00,,0828.6,5.00,0.00,28.6,27.0,00.0,36.9,30.0,17.1,0000.0,0010.14,0004.75,0003.59
2023-05-03 10:28:00,,0828.6,4.99,0.00,28.6,27.0,00.0,36.9,30.1,17.1,0000.0,0010.14,0004.76,0003.59
2023-05-03 10:29:00,,0828.6,5.00,0.00,28.6,27.0,00.0,36.9,30.0,17.0,0000.0,0010.17,0004.76,0003.60
2023-05-03 10:30:00,,0828.6,4.99,0.00,28.6,27.0,00.0,36.9,30.0,17.0,0000.0,0010.00,0004.72,0003.58
2023-05-03 10:31:00,,0828.6,5.01,0.00,28.6,26.9,00.0,36.9,30.0,16.9,0000.0,0009.94,0004.70,0003.56
2023-05-03 10:32:00,,0828.6,5.00,0.00,28.6,26.9,00.0,36.9,30.0,16.9,0000.0,0009.59,0004.67,0003.55
2023-05-03 10:33:00,,0828.6,5.00,0.00,28.6,26.9,00.0,36.9,30.0,16.9,0000.0,0009.47,0004.65,0003.53
2023-05-03 10:34:00,,0828.5,5.01,0.00,28.6,26.9,00.0,36.9,29.9,16.9,0000.0,0009.49,0004.63,0003.52
2023-05-03 10:35:00,,0828.6,5.00,0.00,28.5,26.9,00.0,36.9,29.9,16.9,0000.0,0009.95,0004.66,0003.50
2023-05-03 10:36:00,,0828.6,5.00,0.00,28.5,26.9,00.0,36.9,29.9,17.0,0000.0,0010.16,0004.66,0003.48
2023-05-03 10:37:00,,0828.6,5.00,0.00,28.6,26.9,00.0,36.9,29.9,16.9,0000.0,0009.61,0004.61,0003.47
2023-05-03 10:38:00,,0828.6,4.99,0.00,28.5,26.9,00.0,36.9,29.9,17.0,0000.0,0009.65,0004.59,0003.45
2023-05-03 10:39:00,,0828.5,5.00,0.00,28.5,26.9,00.0,36.9,30.0,17.0,0000.0,0009.55,0004.53,0003.42
2023-05-03 10:40:00,,0828.5,5.00,0.00,28.5,26.9,00.0,36.9,29.9,17.0,0000.0,0009.57,0004.51,0003.42
2023-05-03 10:41:00,,0828.5,5.00,0.00,28.5,26.9,00.0,36.9,29.9,16.9,0000.0,0009.58,0004.48,0003.40
2023-05-03 10:42:00,,0828.6,5.01,0.00,28.5,26.9,00.0,36.9,29.9,16.8,0000.0,0009.74,0004.52,0003.40
2023-05-03 10:43:00,,0828.5,5.01,0.00,28.5,26.8,00.0,36.9,29.9,16.9,0000.0,0010.65,0004.52,0003.40
2023-05-03 10:44:00,,0828.5,4.98,0.00,28.5,26.8,00.0,36.9,29.9,16.9,0000.0,0010.90,0004.50,0003.38
2023-05-03 10:45:00,,0828.4,5.01,0.00,28.5,26.8,00.0,36.9,29.9,16.9,0000.0,0011.50,0004.55,0003.38
2023-05-03 10:46:00,,0828.4,5.00,0.00,28.5,26.8,00.0,36.9,29.9,16.9,0000.0,0011.75,0004.57,0003.38
2023-05-03 10:47:00,,0828.4,5.01,0.00,28.5,26.8,00.0,36.9,29.9,17.0,0000.0,0011.44,0004.56,0003.39
2023-05-03 10:48:00,,0828.4,5.01,0.00,28.5,26.8,00.0,36.9,29.8,17.1,0000.0,0011.44,0004.60,0003.39
2023-05-03 10:49:00,,0828.4,4.98,0.00,28.5,26.8,00.0,36.9,29.9,16.7,0000.0,0011.36,0004.61,0003.40
2023-05-03 10:50:00,,0828.4,5.00,0.00,28.5,26.8,00.0,36.9,29.9,16.7,0000.0,0011.44,0004.65,0003.42
2023-05-03 10:51:00,,0828.4,5.01,0.00,28.5,26.8,00.0,36.9,29.9,16.7,0000.0,0011.32,0004.65,0003.42
2023-05-03 10:52:00,,0828.4,5.01,0.00,28.5,26.8,00.0,36.9,29.8,16.6,0000.0,0011.36,0004.67,0003.43
2023-05-03 10:53:00,,0828.4,5.00,0.00,28.5,26.7,00.0,36.9,29.9,16.6,0000.0,0011.56,0004.68,0003.43
2023-05-03 10:54:00,,0828.4,5.00,0.00,28.5,26.7,00.0,36.9,29.8,16.6,0000.0,0010.83,0004.69,0003.44
2023-05-03 10:55:00,,0828.4,4.98,0.00,28.5,26.7,00.0,36.9,29.9,16.7,0000.0,0010.36,0004.67,0003.43
2023-05-03 10:56:00,,0828.4,5.00,0.00,28.4,26.7,00.0,36.8,29.9,16.7,0000.0,0009.63,0004.60,0003.43
2023-05-03 10:57:00,,0828.4,5.00,0.00,28.4,26.7,00.0,36.8,29.8,16.8,0000.0,0009.33,0004.57,0003.42
2023-05-03 10:58:00,,0828.4,5.00,0.00,28.4,26.7,00.0,36.8,29.8,16.9,0000.0,0009.43,0004.57,0003.41
2023-05-03 10:59:00,,0828.4,5.00,0.00,28.4,26.7,00.0,36.8,29.8,16.9,0000.0,0009.74,0004.56,0003.41
